Location: Newark
(13.7497°N, 100.4964°E)
Time: 00:21:41
(UTC+00:00)

Hubble Space Telescope - Visible Passes

Search period start: 21 September 2019 00:00
Search period end: 01 October 2019 00:00
Orbit: 536 x 540 km, 28.5° (Epoch: 19 September)

Date Brightness Start Highest point End Pass type
(mag) Time Alt. Az. Time Alt. Az. Time Alt. Az.
21 Sep 2.7 21:54:49 14° NNW 21:57:21 23° NNE 22:00:38 10° ENE visible
22 Sep 2.4 21:45:11 21° NNW 21:46:53 28° NNE 21:50:27 10° E visible
23 Sep 3.5 13:04:26 10° SSW 13:04:38 11° SSW 13:04:38 11° SSW visible
23 Sep 1.9 21:35:36 32° N 21:36:24 35° NNE 21:40:12 10° E visible
24 Sep 2.7 12:53:31 10° SW 12:55:13 21° SSW 12:55:13 21° SSW visible
24 Sep 1.6 21:26:06 46° NNE 21:26:06 46° NNE 21:29:51 10° E visible
25 Sep 1.6 12:42:43 10° SW 12:45:46 40° SSW 12:45:46 40° SSW visible
25 Sep 2.0 21:16:38 40° E 21:16:38 40° E 21:19:27 10° ESE visible
26 Sep 0.6 12:32:03 10° SW 12:36:09 70° SSE 12:36:18 69° SE visible
26 Sep 2.8 21:07:12 24° ESE 21:07:12 24° ESE 21:08:57 10° ESE visible
26 Sep 2.6 22:43:12 10° WSW 22:45:52 17° SSW 22:48:32 10° S visible
27 Sep 0.7 12:21:28 10° WSW 12:25:36 85° NNW 12:26:47 45° ENE visible
27 Sep 3.6 20:57:46 14° SE 20:57:46 14° SE 20:58:22 10° SE visible
27 Sep 2.9 22:33:43 10° SW 22:35:17 12° SSW 22:36:52 10° S visible
28 Sep 1.1 12:10:58 10° WSW 12:15:03 62° NNW 12:17:12 26° NE visible
29 Sep 1.6 12:00:34 10° W 12:04:32 45° NNW 12:07:32 16° NE visible
30 Sep 2.1 11:50:14 10° W 11:54:02 35° NNW 11:57:48 10° NE visible
